Погода в Загоскине

Россия / Ульяновская область     53°52′35″N   47°39′00″E
темп.,
°C
ветер,
м/с
пор.,
м/с
влажн.,
%
обл.,
%
осадки,
мм/ч
давл.,
гПа
погр.,
м
6 марта, сб
сб601:00−11зюз46930 0.0 1011103
04:00−12з48959 0.0 1013132
07:00−13з459627 0.0 101489
10:00−10зсз369425 0.0 1016210
13:00−7сз237771 0.0 1016385
16:00−7ююз117986 0.0 1014328
19:00−11ю1284100 0.0 101421
22:00−13юз129098 0.0 101421
7 марта, вс
вс701:00−13з129454 0.0 101320
04:00−14зюз229656 0.0 101320
07:00−15з339655 0.0 101227
10:00−12зюз369431 0.0 1012208
13:00−7юз598426 0.0 1011793
16:00−6юз6108159 0.0 1008938
19:00−8ююз81493100 0.1 1004887
22:00−6ююз91693100 0.8 10011088
8 марта, пн
пн801:00−5юз81690100 0.5 997936
04:00−4зюз71295100 1.2 997678
07:00−12з468282 0.2 99888
10:00−8юз5108149 0.2 1000334
13:00−5зюз7128445 0.0 1000969
16:00−4зюз7108273 0.2 9991195
19:00−6з71285100 1.3 1000754
22:00−8з6139297 1.5 1003520
9 марта, вт
вт901:00−10з5129288 0.1 1006504
04:00−12з4109494 0.1 1008298
07:00−15з479689 0.1 1011135
10:00−13зсз479387 0.1 1013337
13:00−11зсз358887 0.0 1013526
16:00−10зсз358793 0.0 1014573
19:00−15сз349476 0.0 101545
22:00−19ссз339538 0.0 101734
10 марта, ср
ср1001:00−21сз239654 0.0 101726
04:00−23сз339862 0.0 101831
07:00−24сз339976 0.0 101948
10:00−21ссз479685 0.0 1020268
13:00−18ссз4690100 0.0 1021525
16:00−17сз5789100 0.1 1021603
19:00−22сз489591 0.0 1022161
22:00−25сз349872 0.1 102463